User: anonymous   Login
Location: Keeble Observatory
(37.7625°N, 77.4755°W)
Time: 11:17:16
(UTC-05:00)
Language:

Cosmos 1484 Rocket - Orbit

View from above orbital plane
View from above orbital plane
View from above satellite
View from above satellite

Ground track
Ground track

The orbit data is extracted from the following two-line orbital elements,

1 14208U 83075B   16338.85059593  .00000597  00000-0  39651-4 0  9992
2 14208  97.3468 351.4109 0041291  85.3279 275.2665 15.10191026818026
Epoch (UTC): 03 December 2016 20:24:51
Eccentricity: 0.0041291
inclination: 97.3468°
perigee height: 507 km
apogee height: 564 km
right ascension of ascending node: 351.4109°
argument of perigee: 85.3279°
revolutions per day: 15.10191026
mean anomaly at epoch: 275.2665°
orbit number at epoch: 81802

The dashed part of the orbit path shows where the satellite is in the earth's shadow,  

DLR